Flag for U.S.A. Weather past 2 weeks in Olympia, Washington, U.S.A.

Now
65 °F

Clear.


Feels Like: 65 °F
Forecast: 57 / 91 °F
Wind: No wind

Location: Olympia Airport

Current Time: Jul 1, 2015 at 12:18:29 AM

Latest Report: Jun 30, 2015 at 11:54 PM


Visibility: 10 mi

Pressure: 30.05 "Hg

Humidity: 63%

Dew point: 52 °F

Location of OlympiaLocation

Historic Weather in Olympia — Graph

°F

Olympia temperature yesterday

Maximum temperature yesterday: 88 °F (at 4:54 PM)
Minimum temperature yesterday: 55 °F (at 4:54 AM)
Average temperature yesterday: 70 °F

Past Weeks' High & Low Weather Summary

 TemperatureHumidityPressure
High93 °F (Jun 27, 4:54 PM)96% (Jun 30, 4:54 AM)30.17 "Hg (Jun 30, 4:54 AM)
Low45 °F (Jun 20, 4:54 AM)20% (Jun 21, 2:54 PM)29.89 "Hg (Jun 27, 7:54 PM)
Average68 °F59%30.04 "Hg
* Reported Jun 16 8:56 AM — Jun 30 10:54 PM, Olympia, Weather by CustomWeather, © 2015

Note: Actual official high and low records may vary slightly from our data, if they occured in-between our weather recording intervals... More about our weather records

Advertising

Olympia weather history for previous 24 hours

 ConditionsComfort  
Time TempWeatherWind HumidityBarometerVisibility
10:54 PM
Tue, Jun 30
67 °FClear.5 mph66%30.04 "Hg10 mi
8:54 PM76 °FSunny.No wind48%30.01 "Hg10 mi
7:54 PM82 °FSunny.7 mph41%30.01 "Hg10 mi
6:54 PM86 °FSunny.9 mph37%30.01 "Hg10 mi
5:54 PM87 °FSunny.9 mph37%30.01 "Hg10 mi
4:54 PM88 °FSunny.7 mph38%30.03 "Hg10 mi
3:54 PM85 °FSunny.3 mph45%30.04 "Hg10 mi
2:54 PM84 °FSunny.8 mph46%30.06 "Hg10 mi
1:54 PM82 °FSunny.No wind48%30.08 "Hg10 mi
12:54 PM76 °FSunny.No wind56%30.10 "Hg10 mi
11:54 AM71 °FSunny.3 mph63%30.11 "Hg10 mi
10:54 AM68 °FScattered clouds.6 mph68%30.13 "Hg10 mi
9:54 AM63 °FLow clouds.No wind81%30.13 "Hg10 mi
8:54 AM60 °FLow clouds.5 mph86%30.13 "Hg10 mi
7:54 AM60 °FLow clouds.5 mph86%30.12 "Hg10 mi
6:54 AM59 °FLow clouds.3 mph90%30.12 "Hg10 mi
5:54 AM57 °FOvercast.No wind93%30.11 "Hg10 mi
4:54 AM55 °FLow clouds.No wind96%30.11 "Hg10 mi
3:54 AM57 °FClear.No wind93%30.10 "Hg10 mi
2:54 AM57 °FClear.No wind93%30.09 "Hg10 mi
1:54 AM59 °FClear.No wind90%30.08 "Hg10 mi
12:54 AM59 °FClear.No wind90%30.08 "Hg10 mi
Weather by CustomWeather, © 2015

See weather overviewHow to use our weather pages